sat.trackr.live / text

‹ back to catalog

ONEWEB-0113

NORAD 48050 · 2021-025J

PAYLOAD ACTIVE UNKNOWN

§ Identity

Operator
Country
UK
Launch date
2021-03-25
Launch site
VOSTO
Launch vehicle
Mass (kg)
RCS (m²)

Purposes: comms

External: N2YO · Heavens-Above · Gunter

§ Orbital elements

Epoch: 2026-09-20T01:18:52.737120Z

Period
109.60 min
Inclination
87.8909°
Eccentricity
0.0001973
Mean motion
13.13891852 rev/d
Perigee alt
1,206.6 km
Apogee alt
1,209.6 km
Semi-major
7,586.3 km
B*
-7.0767e-4
RAAN
301.2467°
Arg perigee
99.3475°
Mean anomaly
260.7877°
Rev number
26,606

§ Raw data

ONEWEB-01131 48050U 21025J   26263.05477705 -.00000247  00000+0 -70767-3 0  99952 48050  87.8909 301.2467 0001973  99.3475 260.7877 13.13891852266068

JSON: /api/v1/satellites/48050 · /tle

For live sub-satellite position, see the globe view (requires WebGL).

§ Visibility from observer

Set your observer location to see the next 7 days of passes ≥ 10°. The values pass through the URL so the page stays shareable.

No JS? Fill the form by hand. The geolocation button needs JavaScript.